Weather Roundup
Issued by NWS

Home | Current Version | Previous Version | Graphics & Text | Print | Product List | Glossary Off
Versions: 1 2 3 4 5 6 7 8 9 10 11 12 13 14 15 16 17 18 19 20 21 22 23 24 25 26 27 28 29 30 31 32 33 34 35 36 37 38 39 40 41 42 43 44 45 46 47 48 49 50

000
NZUS93 KARX 222259
HRRWXR

CURRENT HOURLY OBSERVATIONS ACROSS
MUCH OF THE UPPER MISSISSIPPI VALLEY
NATIONAL WEATHER SERVICE LA CROSSE WI
600 PM CDT MON SEP 22 2014


...SOUTHEAST MINNESOTA...


CITY           SKY/WX    TMP DP  RH WIND       PRES   REMARKS
ROCHESTER      SUNNY     68  49  50 W5        30.20F
ROCHESTER/MAYO FAIR      70  45  40 W6        30.19F
WINONA         SUNNY     70  50  49 CALM      30.18F
AUSTIN         SUNNY     68  48  49 SW5       30.19F
ALBERT LEA     SUNNY     70  48  46 CALM      30.19F
DODGE CENTER   SUNNY     68  50  52 W3        30.19F
PRESTON        SUNNY     67  53  60 SW5       30.20F
OWATONNA       SUNNY     70  48  46 SW3       30.19S
FARIBAULT      SUNNY     73  43  33 CALM      30.18F
$$

...ELSEWHERE IN MINNESOTA...


CITY           SKY/WX    TMP DP  RH WIND       PRES   REMARKS
MINNEAPOLIS    SUNNY     70  48  45 S8        30.16F
INTNL FALLS    SUNNY     70  51  51 SW9       30.05S
DULUTH         MOSUNNY   69  49  48 W12       30.11S
RED WING       SUNNY     72  46  40 W5        30.16S
REDWOOD FALLS  SUNNY     73  46  38 S9        30.14F
MANKATO        SUNNY     72  46  40 SW5       30.17S
WORTHINGTON    SUNNY     70  46  43 S12       30.18S
FAIRMONT       SUNNY     72  45  37 SW7       30.18F
$$

...SOUTHWEST WISCONSIN...


CITY           SKY/WX    TMP DP  RH WIND       PRES   REMARKS
LA CROSSE      LGT RAIN  71  51  49 CALM      30.18F
PRAIRIE DU CHI SUNNY     70  44  38 W5        30.19F
BOSCOBEL       SUNNY     70  49  47 W6        30.20F
LONE ROCK      NOT AVBL
PLATTEVILLE    CLEAR     68  47  47 W9        30.23S
FORT MC COY    CLEAR     68  49  50 W5        30.19F
VIROQUA        FAIR      68  49  50 W5        30.20F
WIS DELLS      CLEAR     67  47  47 W8        30.20S
$$

...ELSEWHERE IN WISCONSIN...


CITY           SKY/WX    TMP DP  RH WIND       PRES   REMARKS
MILWAUKEE      PTCLDY    67  44  43 W9        30.20S
MADISON        PTCLDY    68  47  46 VRB3      30.21S
GREEN BAY      CLEAR     66  50  56 W9        30.16S
EAU CLAIRE     NOT AVBL
BLACK RVR FLS  FAIR      68  49  50 W3        30.18S
MEDFORD        CLEAR     63  49  60 W6        30.17F
WAUSAU         CLEAR     64  49  57 W9        30.16S
WIS RAPIDS     CLEAR     67  50  54 W10       30.19S
MARSHFIELD     CLEAR     65  50  58 W8        30.18S
RICE LAKE      SUNNY     67  49  53 SW6       30.18S
$$

...NORTHEAST IOWA...


CITY           SKY/WX    TMP DP  RH WIND       PRES   REMARKS
WATERLOO       SUNNY     70  49  47 S7        30.19F
DUBUQUE        SUNNY     67  46  47 W8        30.23S
DECORAH        SUNNY     70  48  46 W5        30.20S
MASON CITY     SUNNY     69  48  47 SW3       30.21F
CHARLES CITY   SUNNY     70  46  43 W5        30.21S
OELWEIN        NOT AVBL
$$

...ELSEWHERE IN IOWA...


CITY           SKY/WX    TMP DP  RH WIND       PRES   REMARKS
DES MOINES     MOSUNNY   72  50  45 SW7       30.21F
IOWA CITY      SUNNY     69  50  50 S3        30.24S
FORT DODGE     MOSUNNY   72  48  43 SW6       30.20F
MARSHALLTOWN   SUNNY     70  49  47 S8        30.21F
CEDAR RAPIDS   SUNNY     68  48  48 S5        30.22F
$$

...NORTHERN ILLINOIS...


CITY           SKY/WX    TMP DP  RH WIND       PRES   REMARKS
CHICAGO-OHARE  CLEAR     67  42  40 W3        30.21F
DUPAGE         CLEAR     67  44  43 W3        30.22F
CHICAGO-MIDWAY CLEAR     64  46  52 E9        30.23S
MOLINE         SUNNY     68  46  45 S5        30.23F
ROCKFORD       CLEAR     67  46  47 W5        30.24S
STERLING       CLEAR     68  45  42 N5        30.23S
PEORIA         CLEAR     69  45  41 CALM      30.25R
$$

NOTE: "FAIR" INDICATES FEW OR NO CLOUDS BELOW 12,000 FEET WITH NO
SIGNIFICANT WEATHER AND/OR OBSTRUCTIONS TO VISIBILITY. WIND
SPEEDS ARE IN MILES-PER-HOUR.



USA.gov is the U.S. government's official web portal to all federal, state and local government web resources and services.